Location: La Comballaz
(46.3780°N, 7.0817°E)
Time: 21:08:35
(UTC+00:00)

AO-7 - Pass Details

Date: 12 December 2022
Orbit: 1440 x 1458 km, 101.9° (Epoch: 07 February)

Event Time Altitude Azimuth Distance (km) Brightness Sun altitude
Rises 03:27:37 0° 23° (NNE) 4,548 ? -36.5°
Reaches altitude 10° 03:30:40 10° 31° (NNE) 3,568 ? -36.0°
Maximum altitude 03:38:21 40° 98° (E) 2,028 ? -34.7°
Drops below altitude 10° 03:46:00 10° 166° (SSE) 3,561 ? -33.4°
Sets 03:49:01 0° 173° (S) 4,538 ? -32.8°
